Hourly Data Report for September 18, 2021

WINNIPEG THE FORKS
MANITOBA
Current Station Operator: ECCC - MSC

49°53'18.008" N
97°07'46.007" W
230.00 m
5023262
71579
XWN

Download Data

Hourly Data (September 2021)
Hourly Data Report for September 18, 2021
TIME
LST
Temp Definition
°C
Dew Point Definition
°C
Rel Hum Definition
%
Precip. Amount Definition
mm

Wind Dir Definition
10's deg

Wind Spd Definition
km/h
Visibility Definition
km
Stn Press Definition
kPa
Hmdx Definition


Wind Chill Definition


Weather Definition


00:00 9.1 4.4 72 0.0 20 3   99.06     LegendNANA
01:00 9.6 3.7 67 0.0 20 3   99.04     LegendNANA
02:00 9.3 3.4 67 0.0 21 2   99.02     LegendNANA
03:00 9.7 2.8 62 0.0 20 4   98.98     LegendNANA
04:00 9.2 2.8 64 0.0 23 2   98.90     LegendNANA
05:00 9.2 2.1 61 0.0 23 4   98.80     LegendNANA
06:00 10.5 1.8 55 0.0 23 3   98.70     LegendNANA
07:00 11.4 2.1 53 0.0 23 4   98.63     LegendNANA
08:00 14.4 2.3 44 0.0 21 7   98.53     LegendNANA
09:00 15.9 3.0 42 0.0 20 8   98.47     LegendNANA
10:00 18.0 3.3 37 0.0 20 15   98.41     LegendNANA
11:00 19.8 4.6 37 0.0 21 13   98.33     LegendNANA
12:00 21.7 7.4 40 0.0 20 10   98.20     LegendNANA
13:00 23.0 8.7 40 0.0 20 14   98.10     LegendNANA
14:00 24.1 9.4 39 0.0 20 14   98.01 25   LegendNANA
15:00 25.0 10.1 39 0.0 20 12   97.93 26   LegendNANA
16:00 24.9 9.5 38 0.0 21 9   97.88 26   LegendNANA
17:00 24.3 9.9 40 0.0 22 7   97.82 26   LegendNANA
18:00 23.8 10.6 43 0.0 23 6   97.77 25   LegendNANA
19:00 22.7 10.8 47 0.0 23 4   97.72     LegendNANA
20:00 21.5 10.7 50 0.0 21 5   97.73     LegendNANA
21:00 20.5 11.3 56 0.0 22 5   97.67     LegendNANA
22:00 19.8 11.7 60 0.0 23 5   97.60     LegendNANA
23:00 19.1 11.9 63 0.0 22 4   97.53     LegendNANA

Notes on Data Quality.

Legend

  • E = Estimated
  • M = Missing
  • NA = Not Available*
  • [empty] = Indicates an unobserved value
Date modified: